Weather History for KBBW - August, 2014

Change the Weather History Date:

Tuesday, August 12, 2014

  Actual Average Record
Temperature  
Mean Temperature 67 °F 73 °F  
Max Temperature 84 °F 85 °F 102 °F (1936)
Min Temperature 49 °F 61 °F 35 °F (1964)
Degree Days  
Heating Degree Days 0 0  
Month to date heating degree days 0 0  
Since 1 June heating degree days 40 51  
Cooling Degree Days 2 8  
Month to date cooling degree days 103 103  
Year to date cooling degree days 567 577  
Since 1 June cooling degree days 489 543  
Growing Degree Days 15 (Base 50)    
Moisture  
Dew Point 55 °F    
Average Humidity 71    
Maximum Humidity 100    
Minimum Humidity 42    
Precipitation  
Precipitation 0.00 in 0.08 in 2.23 in (1961)
Sea Level Pressure  
Sea Level Pressure 30.14 in    
Wind  
Wind Speed 3 mph (SE)    
Max Wind Speed 9 mph    
Max Gust Speed 20 mph    
Visibility 10 miles    
Events      
T = Trace of Precipitation, MM = Missing Value Source: NWS Daily Summary

Daily Weather History Graph

Daily Weather History Graph

Search for Another Location

Airport or City:

Trip Planner

Search our weather history database for the weather conditions in past years. The results will help you decide how hot, cold, wet, or windy it might be!

Date:

Astronomy

Aug. 12, 2014 Rise Set
Actual Time 6:44 AM CDT 8:41 PM CDT
Civil Twilight 6:14 AM CDT 9:11 PM CDT
Nautical Twilight 5:37 AM CDT 9:48 PM CDT
Astronomical Twilight 4:57 AM CDT 10:28 PM CDT
Moon 9:47 PM CDT (8/12) 9:06 AM CDT (8/12)
Length of Visible Light 14h 57m
Length of Day
13h 57m
Waning Gibbous, 94% of the Moon is Illuminated
Aug 12
Waning Gibbous
Aug 17
Last Quarter
Aug 25
New
Sep 2
First Quarter
Sep 8
Full

Hourly Weather History & Observations

Time (CDT) Temp. Heat Index Dew Point Humidity Pressure Visibility Wind Dir Wind Speed Gust Speed Precip Events Conditions
12:53 AM 55.0 °F - 52.0 °F 89% 30.19 in 10.0 mi Calm Calm - N/A   Clear
1:53 AM 53.1 °F - 51.1 °F 93% 30.19 in 10.0 mi North 4.6 mph - N/A   Clear
2:53 AM 52.0 °F - 50.0 °F 93% 30.19 in 10.0 mi WSW 5.8 mph - N/A   Clear
3:53 AM 51.8 °F - 50.0 °F 94% 30.23 in 10.0 mi Calm Calm - N/A   Clear
4:53 AM 50.0 °F - 48.0 °F 93% 30.19 in 10.0 mi Calm Calm - N/A   Clear
5:53 AM 50.0 °F - 48.0 °F 93% 30.19 in 10.0 mi Calm Calm - N/A   Clear
6:53 AM 48.2 °F - 48.2 °F 100% 30.22 in 9.0 mi Calm Calm - N/A   Clear
7:53 AM 55.0 °F - 53.1 °F 93% 30.19 in 10.0 mi Calm Calm - N/A   Clear
8:53 AM 63.0 °F - 55.9 °F 78% 30.19 in 10.0 mi Calm Calm - N/A   Clear
9:53 AM 70.0 °F - 57.0 °F 63% 30.18 in 10.0 mi Variable 3.5 mph - N/A   Clear
10:53 AM 73.9 °F - 55.9 °F 53% 30.18 in 10.0 mi South 4.6 mph - N/A   Clear
12:53 PM 78.1 °F - 54.0 °F 43% 30.14 in 10.0 mi Calm Calm - N/A   Partly Cloudy
1:53 PM 82.0 °F 81.7 °F 57.0 °F 42% 30.13 in 10.0 mi SSE 6.9 mph - N/A   Mostly Cloudy
2:53 PM 82.9 °F 82.6 °F 57.9 °F 42% 30.12 in 10.0 mi ESE 6.9 mph - N/A   Clear
3:53 PM 82.0 °F 81.7 °F 57.0 °F 42% 30.10 in 10.0 mi Calm Calm - N/A   Clear
4:53 PM 82.9 °F 82.4 °F 57.0 °F 41% 30.09 in 10.0 mi East 3.5 mph - N/A   Clear
5:53 PM 82.0 °F 82.0 °F 57.9 °F 44% 30.08 in 10.0 mi ESE 5.8 mph - N/A   Clear
6:53 PM 80.1 °F 80.9 °F 60.1 °F 50% 30.07 in 10.0 mi ESE 6.9 mph - N/A   Clear
7:53 PM 75.0 °F - 60.1 °F 60% 30.07 in 10.0 mi ESE 6.9 mph - N/A   Clear
8:53 PM 70.0 °F - 60.1 °F 71% 30.07 in 10.0 mi SE 6.9 mph - N/A   Clear
9:53 PM 64.9 °F - 59.0 °F 81% 30.09 in 10.0 mi SE 4.6 mph - N/A   Clear
10:53 PM 61.0 °F - 57.9 °F 90% 30.09 in 10.0 mi Calm Calm - N/A   Clear
11:53 PM 59.0 °F - 57.0 °F 93% 30.09 in 10.0 mi Calm Calm - N/A   Clear